Regional Weather Roundup
Issued by NWS

Home | Current Version | Previous Version | Text Only | Print | Product List | Glossary Off
Versions: 1 2 3 4 5 6 7 8 9 10 11 12 13 14 15 16 17 18 19 20 21 22 23 24 25 26 27 28 29 30 31 32 33 34 35 36 37 38 39 40 41 42 43 44 45 46

000
ASUS45 KSLC 261510
RWRUT

UTAH REGIONAL WEATHER ROUNDUP
NATIONAL WEATHER SERVICE SALT LAKE CITY UT
800 AM MST FRI DEC 26 2014

UTZ001>011-023>025-261600-

NORTHERN UTAH

CITY           SKY/WX    TMP DP  RH WIND       PRES   REMARKS
BRIGHAM CITY   MOCLDY    23  15  72 N8        29.98R WCI  14
HILL AFB       CLOUDY    24  14  66 E6        29.94R WCI  17
LOGAN          PTCLDY    11  10  96 E6        29.99R FOG     WCI   1
OGDEN          MOCLDY    24  17  74 W3        29.95R
PROVO AIRPORT  MOCLDY    23  16  74 N8        29.92R WCI  14
SALT LAKE CITY MOCLDY    26  22  84 N6        29.95R WCI  19
VERNAL         PTCLDY    19   8  62 E9        29.85R WCI   8
WENDOVER       CLEAR     27  10  50 NW24      30.02R WCI  12
HEBER CITY     PTCLDY    18   9  68 E10       29.88R WCI   6
WEST JORDAN    CLOUDY    25  23  93 NW10      29.94R WCI  15

$$

UTZ012>022-026-027-261600-

SOUTHERN/CENTRAL UTAH

CITY           SKY/WX    TMP DP  RH WIND       PRES   REMARKS
BLANDING       CLEAR     18  13  82 CALM      29.81R
BRYCE CANYON   PTCLDY    11   7  84 NW14      29.79R WCI  -5
CEDAR CITY     FLURRIES  20  17  88 NE9       29.90R WCI   9
DELTA          CLOUDY    23  19  86 NW16G22   29.94R WCI   9
MILFORD        LGT SNOW  23  20  88 N8        29.94R FOG     WCI  14
MOAB/CYNLANDS  LGT SNOW  25  24  96 CALM      29.81R VSB 1
PRICE          CLOUDY    24   9  52 N9        29.79R WCI  14
ST GEORGE      MOSUNNY   27  18  69 S5        30.00R WCI  21
KANAB          CLOUDY    21  21 100 CALM      29.92R

$$

REGIONAL REPORTS     COLORADO/ARIZONA

CITY           SKY/WX    TMP DP  RH WIND       PRES   REMARKS
CRAIG, CO      LGT SNOW  16  11  80 W10       29.80R WCI   4
GRAND JUNCTION LGT SNOW  22  22 100 NW6       29.79R FOG     WCI  14
RIFLE          CLOUDY    23  14  68 NW8       29.78R WCI  14
MONTROSE       LGT SNOW  24  22  91 CALM      29.79R VSB 3/4
CORTEZ         CLEAR      6   4  91 CALM      29.74R
PAGE, AZ       MOCLDY    33  12  41 NW9       29.84R WCI  25
GRAND CANYON   CLEAR     10   7  87 CALM      29.84R
KINGMAN        CLEAR     27  14  58 E5        29.98R WCI  22
FLAGSTAFF      CLEAR     16  10  77 CALM      29.82R

$$

REGIONAL REPORTS    NEVADA/IDAHO/WYOMING

CITY           SKY/WX    TMP DP  RH WIND       PRES   REMARKS
LAS VEGAS, NV  PTCLDY    42  10  27 NW17G26   30.00R
ELY            MOCLDY    15   9  76 NW9       29.98R WCI   3
ELKO           CLOUDY    24  16  71 W5        30.06S WCI  18
POCATELLO, ID  PTCLDY     6   3  87 E3        30.04R
BURLEY         CLOUDY    21  14  74 CALM      30.04R
EVANSTON, WY   LGT SNOW  13  10  88 N5        29.84S FOG     WCI   5
ROCK SPRINGS   LGT SNOW  13   8  81 NE10      29.85R WCI   0

$$



USA.gov is the U.S. government's official web portal to all federal, state and local government web resources and services.